Rochester, MN

10:03 PM CDT on July 30, 2016 (GMT -0500)
Rochester/St. Mary\'s Hospita

Weather History for K9MN - May, 2014

Change the Weather History Date:

Wednesday, May 14, 2014

  Actual Average (KRST) Record (KRST)
Temperature  
Mean Temperature 49 °F 58 °F  
Max Temperature 59 °F 68 °F 97 °F (2013)
Min Temperature 39 °F 47 °F 26 °F (1937)
Degree Days  
Heating Degree Days 16 8  
Month to date heating degree days 141  
Since 1 July heating degree days 7566  
Cooling Degree Days 0 1  
Month to date cooling degree days 7  
Year to date cooling degree days 11  
Moisture  
Dew Point 29 °F    
Average Humidity 47    
Maximum Humidity 76    
Minimum Humidity 25    
Precipitation  
Precipitation 0.00 in 0.11 in 1.70 in (1916)
Month to date precipitation 1.61  
Year to date precipitation 8.42  
Snow  
Snow 0.00 in 0.00 in 0.00 in (2012)
Month to date snowfall 0.2  
Since 1 July snowfall 52.1  
Snow Depth -    
Sea Level Pressure  
Sea Level Pressure 30.18 in    
Wind  
Wind Speed 7 mph (NW)    
Max Wind Speed 12 mph    
Max Gust Speed 20 mph    
Visibility 10 miles    
Events      
T = Trace of Precipitation, MM = Missing Value Source: NWS Daily Summary

Daily Weather History Graph

Daily Weather History Graph

Search for Another Location

Airport or City:

Trip Planner

Search our weather history database for the weather conditions in past years. The results will help you decide how hot, cold, wet, or windy it might be!

Date:

Astronomy

May. 14, 2014 Rise Set
Actual Time 5:44 AM CDT 8:28 PM CDT
Civil Twilight 5:11 AM CDT 9:01 PM CDT
Nautical Twilight 4:29 AM CDT 9:43 PM CDT
Astronomical Twilight 3:41 AM CDT 10:32 PM CDT
Moon 8:33 PM CDT (5/14) 5:45 AM CDT (5/14)
Length of Visible Light 15h 50m
Length of Day
14h 43m
Full, 100% of the Moon is Illuminated
May 14
Full
May 14
Full
May 21
Last Quarter
May 28
New
Jun 5
First Quarter

Hourly Weather History & Observations

Time (CDT) Temp. Windchill Dew Point Humidity Pressure Visibility Wind Dir Wind Speed Gust Speed Precip Events Conditions
12:12 AM 45.0 °F 40.1 °F 32.9 °F 63% 30.21 in 10.0 mi West 9.2 mph - N/A   Clear
12:33 AM 44.6 °F 39.7 °F 32.9 °F 64% 30.21 in 10.0 mi West 9.2 mph - N/A   Clear
12:52 AM 43.9 °F 38.3 °F 33.1 °F 66% 30.21 in 10.0 mi West 10.4 mph - N/A   Clear
1:12 AM 43.7 °F 39.1 °F 33.3 °F 67% 30.20 in 10.0 mi West 8.1 mph - N/A   Clear
1:33 AM 43.0 °F 37.7 °F 33.6 °F 70% 30.20 in 10.0 mi West 9.2 mph - N/A   Clear
1:52 AM 42.8 °F 37.5 °F 33.6 °F 70% 30.20 in 10.0 mi West 9.2 mph - N/A   Clear
2:12 AM 42.6 °F 36.3 °F 33.4 °F 70% 30.20 in 10.0 mi West 11.5 mph - N/A   Clear
2:32 AM 42.1 °F 36.1 °F 33.8 °F 72% 30.20 in 10.0 mi West 10.4 mph - N/A   Clear
2:53 AM 42.1 °F 36.6 °F 33.3 °F 71% 30.20 in 10.0 mi West 9.2 mph - N/A   Clear
3:12 AM 41.9 °F 36.3 °F 33.1 °F 71% 30.20 in 10.0 mi West 9.2 mph - N/A   Clear
3:32 AM 41.5 °F 36.4 °F 32.9 °F 71% 30.21 in 10.0 mi West 8.1 mph - N/A   Clear
4:12 AM 40.8 °F 36.9 °F 32.9 °F 73% 30.21 in 10.0 mi West 5.8 mph - N/A   Clear
4:33 AM 40.3 °F 35.5 °F 32.9 °F 75% 30.21 in 10.0 mi West 6.9 mph - N/A   Clear
4:52 AM 40.1 °F 36.1 °F 32.9 °F 75% 30.21 in 10.0 mi West 5.8 mph - N/A   Clear
5:12 AM 40.1 °F 34.7 °F 32.9 °F 75% 30.22 in 10.0 mi West 8.1 mph - N/A   Clear
5:33 AM 39.6 °F 34.7 °F 32.5 °F 76% 30.22 in 10.0 mi West 6.9 mph - N/A   Clear
5:52 AM 39.2 °F 35.0 °F 32.4 °F 76% 30.23 in 10.0 mi West 5.8 mph - N/A   Clear
6:12 AM 40.1 °F 36.1 °F 32.5 °F 74% 30.23 in 10.0 mi West 5.8 mph - N/A   Clear
6:32 AM 39.9 °F 36.7 °F 32.5 °F 75% 30.24 in 10.0 mi West 4.6 mph - N/A   Clear
6:52 AM 40.3 °F - 32.5 °F 74% 30.24 in 10.0 mi Calm Calm - N/A   Clear
7:12 AM 41.0 °F - 32.9 °F 73% 30.24 in 10.0 mi Calm Calm - N/A   Clear
7:32 AM 42.1 °F 40.2 °F 32.5 °F 69% 30.24 in 10.0 mi WNW 3.5 mph - N/A   Clear
7:52 AM 43.5 °F 40.1 °F 32.9 °F 66% 30.25 in 10.0 mi West 5.8 mph - N/A   Clear
8:13 AM 45.5 °F 43.2 °F 32.7 °F 61% 30.25 in 10.0 mi West 4.6 mph - N/A   Clear
8:32 AM 46.4 °F 44.3 °F 33.4 °F 61% 30.24 in 10.0 mi WNW 4.6 mph - N/A   Clear
8:52 AM 48.0 °F - 33.3 °F 57% 30.25 in 10.0 mi Calm Calm - N/A   Clear
10:32 AM 52.3 °F - 28.4 °F 40% 30.22 in 10.0 mi NNW 3.5 mph - N/A   Clear
10:52 AM 53.1 °F - 26.2 °F 35% 30.23 in 10.0 mi NW 4.6 mph - N/A   Scattered Clouds
11:13 AM 53.6 °F - 27.1 °F 36% 30.24 in 10.0 mi NW 5.8 mph 17.3 mph N/A   Scattered Clouds
11:32 AM 55.6 °F - 27.1 °F 34% 30.22 in 10.0 mi WNW 5.8 mph - N/A   Scattered Clouds
11:52 AM 55.4 °F - 25.9 °F 32% 30.21 in 10.0 mi WNW 9.2 mph - N/A   Mostly Cloudy
12:12 PM 55.8 °F - 25.2 °F 31% 30.21 in 10.0 mi West 8.1 mph - N/A   Mostly Cloudy
12:32 PM 55.6 °F - 24.8 °F 30% 30.21 in 10.0 mi West 6.9 mph 16.1 mph N/A   Scattered Clouds
12:52 PM 55.9 °F - 25.3 °F 31% 30.19 in 10.0 mi NW 9.2 mph - N/A   Scattered Clouds
1:12 PM 56.7 °F - 25.9 °F 31% 30.19 in 10.0 mi West 10.4 mph - N/A   Mostly Cloudy
1:32 PM 56.7 °F - 25.0 °F 30% 30.18 in 10.0 mi WNW 11.5 mph 17.3 mph N/A   Mostly Cloudy
1:53 PM 56.1 °F - 25.5 °F 31% 30.17 in 10.0 mi NW 9.2 mph 19.6 mph N/A   Scattered Clouds
2:12 PM 55.9 °F - 25.9 °F 31% 30.17 in 10.0 mi NNE 3.5 mph - N/A   Mostly Cloudy
2:32 PM 57.6 °F - 25.5 °F 29% 30.18 in 10.0 mi NW 6.9 mph - N/A   Overcast
2:53 PM 57.4 °F - 25.7 °F 30% 30.17 in 10.0 mi NNW 3.5 mph - N/A   Overcast
3:12 PM 57.6 °F - 25.3 °F 29% 30.17 in 10.0 mi WNW 4.6 mph - N/A   Overcast
3:32 PM 57.7 °F - 25.5 °F 29% 30.16 in 10.0 mi WNW 9.2 mph - N/A   Mostly Cloudy
3:53 PM 58.1 °F - 24.8 °F 28% 30.15 in 10.0 mi WNW 5.8 mph - N/A   Scattered Clouds
4:12 PM 58.1 °F - 24.3 °F 27% 30.14 in 10.0 mi West 10.4 mph - N/A   Mostly Cloudy
4:32 PM 58.6 °F - 25.0 °F 28% 30.14 in 10.0 mi NW 3.5 mph - N/A   Mostly Cloudy
4:53 PM 58.6 °F - 22.8 °F 25% 30.14 in 10.0 mi NW 5.8 mph - N/A   Scattered Clouds
5:12 PM 59.2 °F - 24.6 °F 27% 30.13 in 10.0 mi NNE 8.1 mph - N/A   Scattered Clouds
5:32 PM 59.2 °F - 23.9 °F 26% 30.12 in 10.0 mi North 9.2 mph - N/A   Scattered Clouds
5:52 PM 58.8 °F - 23.7 °F 26% 30.11 in 10.0 mi NNW 4.6 mph - N/A   Clear
6:12 PM 57.9 °F - 23.7 °F 27% 30.10 in 10.0 mi WNW 9.2 mph - N/A   Scattered Clouds
6:52 PM 57.4 °F - 24.6 °F 28% 30.09 in 10.0 mi NNW 5.8 mph - N/A   Clear
7:12 PM 56.8 °F - 25.0 °F 29% 30.09 in 10.0 mi NNW 4.6 mph - N/A   Clear
7:33 PM 56.7 °F - 25.0 °F 30% 30.10 in 10.0 mi NNW 3.5 mph - N/A   Scattered Clouds
7:52 PM 56.5 °F - 25.5 °F 30% 30.10 in 10.0 mi North 3.5 mph - N/A   Scattered Clouds
8:12 PM 55.8 °F - 25.0 °F 31% 30.11 in 10.0 mi North 4.6 mph - N/A   Mostly Cloudy
8:33 PM 55.6 °F - 25.7 °F 32% 30.11 in 10.0 mi NNW 3.5 mph - N/A   Mostly Cloudy
8:52 PM 54.9 °F - 27.0 °F 34% 30.11 in 10.0 mi North 5.8 mph - N/A   Scattered Clouds
9:12 PM 54.7 °F - 26.2 °F 33% 30.12 in 10.0 mi Calm Calm - N/A   Mostly Cloudy
9:33 PM 54.0 °F - 27.9 °F 37% 30.12 in 10.0 mi North 4.6 mph - N/A   Overcast
9:52 PM 53.4 °F - 28.8 °F 39% 30.12 in 10.0 mi North 5.8 mph - N/A   Mostly Cloudy
10:12 PM 52.7 °F - 29.8 °F 42% 30.12 in 10.0 mi NW 4.6 mph - N/A   Mostly Cloudy
10:33 PM 52.2 °F - 30.9 °F 44% 30.13 in 10.0 mi NNW 5.8 mph - N/A   Overcast
10:52 PM 51.4 °F - 30.9 °F 45% 30.12 in 10.0 mi NNW 5.8 mph - N/A   Overcast
11:12 PM 51.1 °F - 30.4 °F 45% 30.13 in 10.0 mi NW 5.8 mph - N/A   Overcast
11:32 PM 50.9 °F - 30.7 °F 46% 30.12 in 10.0 mi NNW 6.9 mph 16.1 mph N/A   Overcast
11:52 PM 50.0 °F - 30.0 °F 46% 30.12 in 10.0 mi North 9.2 mph 17.3 mph N/A   Overcast